{"data":{"norad_id":59537,"epoch":"2026-09-21T10:43:06.950208Z","epoch_age_seconds":86411,"freshness":"FRESH","line1":"1 59537U 24074D   26264.44660822  .00000486  00000+0  27195-4 0  9993","line2":"2 59537  43.0029 317.9225 0001227 273.0704  87.0008 15.27580810135956","mean_motion":15.2758081,"eccentricity":0.0001227,"inclination_deg":43.0029,"raan_deg":317.9225,"arg_perigee_deg":273.0704,"mean_anomaly_deg":87.0008,"bstar":2.7195e-5,"rev_number":13595,"period_min":94.266698728691,"perigee_km":482.20480337294,"apogee_km":483.88853784571,"semimajor_km":6861.1836706093,"source":"CELESTRAK","updated_at":"2026-09-22T09:00:48.968233Z"}}